Vertical_Velocity
-2 -2 -3 -2 -2 -2 -2 -2 -2 -1 -1 -1 -1 -1 -1 -1 -0 -0 -1 -0 -0 -0 0 -0 -0 -0 -0 -1 -1 -0 -1 -1 -2 -2 -2 -3 -3 -4 -4 -4 -4 -3 -2 -4 -6 -6 -4 -4 -4 -4 -4 -4 -4 -4 -4 -4 -4 -4 -4 -5 -5 -6 -6 -7 -7 -7 -7 -6 -4 -1 0 1 1 0 -1 -2 -2 -3 -3 -2 -2 -1 -1 -2 -3 -6 -9 -7 -5 -3 -2 -1 -1 -1 -1 -2 -3 -3 -4 -3 -2 -1 -1
-2 -2 -2 -2 -2 -1 -1 -1 -1 -1 -0 -0 -0 -0 -0 -0 -0 -0 0 0 -0 -0 -0 -0 -0 -1 -1 -1 -1 -1 -1 -2 -2 -2 -2 -2 -3 -3 -4 -4 -4 -3 -2 -4 -5 -5 -3 -3 -3 -4 -3 -4 -4 -4 -4 -4 -3 -3 -3 -4 -4 -4 -5 -5 -6 -7 -8 -8 -7 -5 -3 -1 0 1 1 0 -1 -2 -3 -4 -3 -3 -2 -1 -1 -2 -5 -7 -7 -6 -4 -2 -2 -1 -1 -1 -2 -2 -3 -3 -2 -1 -1
-2 -2 -2 -2 -1 -1 -0 -1 -1 -0 -0 -0 0 0 0 0 0 -0 0 0 -0 -0 -1 -1 -1 -1 -2 -2 -1 -1 -2 -2 -3 -3 -3 -3 -3 -3 -3 -3 -3 -3 -2 -3 -4 -5 -2 -2 -3 -3 -3 -3 -3 -3 -3 -4 -3 -3 -3 -3 -3 -3 -4 -3 -4 -5 -7 -8 -9 -9 -8 -6 -3 -1 0 0 0 -0 -1 -3 -4 -4 -3 -2 -2 -1 -2 -4 -6 -7 -6 -4 -2 -2 -2 -1 -1 -2 -3 -3 -3 -2 -1
-1 -1 -1 -1 -1 -1 -0 -0 -0 0 0 -0 0 0 0 0 0 -0 -0 -0 -1 -1 -1 -1 -1 -2 -2 -3 -3 -3 -3 -3 -3 -3 -3 -3 -3 -3 -3 -3 -3 -3 -2 -2 -4 -5 -4 -2 -2 -3 -3 -3 -3 -3 -3 -3 -3 -3 -3 -3 -3 -3 -3 -2 -2 -3 -4 -5 -7 -9 -10 -10 -8 -6 -4 -2 -1 0 1 0 -1 -3 -4 -4 -3 -2 -1 -2 -3 -5 -7 -6 -4 -2 -2 -1 -1 -2 -2 -3 -3 -3 -2
-0 -0 -1 -1 -1 -1 -1 -1 -0 0 0 0 0 0 -0 -0 -0 -1 -1 -1 -1 -2 -2 -2 -2 -3 -3 -4 -4 -4 -4 -4 -4 -4 -4 -4 -4 -4 -4 -4 -3 -3 -3 -3 -4 -5 -5 -3 -3 -3 -4 -3 -3 -3 -3 -2 -2 -2 -2 -2 -2 -2 -2 -1 -1 -2 -2 -2 -4 -6 -7 -9 -10 -10 -9 -7 -4 -2 -0 1 1 -0 -2 -3 -4 -4 -3 -2 -2 -3 -5 -7 -7 -5 -1 -1 -0 -0 -1 -2 -3 -4 -3
-0 0 0 -1 -1 -1 -1 -1 -0 0 0 0 0 0 -0 -1 -1 -1 -2 -2 -2 -3 -3 -3 -3 -4 -4 -5 -5 -4 -5 -5 -5 -5 -5 -5 -5 -5 -5 -5 -5 -4 -4 -4 -4 -5 -6 -4 -4 -4 -5 -4 -4 -4 -3 -3 -3 -2 -2 -1 -2 -2 -1 -1 -1 -1 -1 -1 -2 -3 -3 -5 -7 -9 -12 -12 -10 -6 -3 -1 0 1 1 -1 -2 -4 -5 -4 -3 -2 -2 -4 -7 -9 -6 -4 -2 -1 -0 -0 -1 -3 -4
-0 -0 0 -0 -1 -1 -1 -0 0 0 0 0 0 0 -0 -1 -1 -1 -2 -2 -3 -3 -4 -4 -4 -4 -5 -5 -5 -5 -5 -5 -5 -5 -5 -5 -5 -6 -6 -6 -6 -6 -5 -5 -5 -6 -7 -6 -6 -5 -5 -5 -5 -5 -4 -4 -3 -3 -3 -2 -2 -2 -1 -1 -1 -1 -1 -2 -2 -2 -3 -3 -3 -5 -7 -10 -12 -12 -9 -5 -2 -0 0 0 0 -1 -3 -5 -5 -4 -2 -2 -5 -8 -10 -8 -6 -4 -2 0 1 -0 -3
-1 -0 -0 -0 -0 -0 -1 -0 -0 -0 0 0 0 0 0 -1 -1 -1 -2 -2 -3 -4 -4 -5 -5 -5 -5 -6 -6 -5 -5 -6 -6 -6 -5 -6 -6 -6 -6 -6 -6 -6 -6 -6 -6 -7 -7 -7 -7 -7 -6 -6 -6 -6 -5 -5 -4 -4 -4 -3 -3 -3 -2 -1 -1 -1 -1 -2 -2 -1 -2 -2 -3 -3 -3 -5 -8 -11 -13 -10 -7 -3 -1 -0 -0 -0 -1 -3 -5 -6 -4 -2 -2 -3 -7 -9 -9 -6 -4 -2 -1 0 0
-0 -0 -0 -0 -0 -1 -1 -1 -0 -0 0 -0 -0 -0 -0 -1 -1 -2 -2 -3 -3 -4 -4 -5 -5 -5 -5 -5 -5 -5 -5 -5 -5 -5 -5 -5 -6 -6 -6 -6 -6 -6 -6 -6 -6 -7 -7 -7 -7 -7 -6 -6 -6 -6 -6 -5 -5 -5 -5 -4 -4 -4 -3 -1 -1 -2 -1 -2 -2 -2 -2 -2 -3 -3 -2 -3 -4 -5 -8 -11 -11 -9 -6 -3 -1 -0 -0 -1 -2 -4 -6 -4 -2 -1 -2 -7 -9 -9 -6 -5 -4 -2 1
-0 0 0 0 -0 -1 -1 -1 -1 -0 -0 -0 -1 -1 -1 -1 -2 -2 -2 -3 -3 -4 -4 -4 -4 -4 -4 -5 -4 -4 -4 -5 -5 -5 -5 -5 -5 -5 -5 -5 -5 -5 -5 -6 -6 -6 -6 -6 -6 -5 -5 -5 -5 -5 -5 -5 -5 -5 -5 -5 -4 -4 -4 -2 -2 -2 -1 -1 -1 -1 -2 -2 -2 -2 -2 -2 -2 -3 -4 -6 -9 -11 -11 -7 -4 -1 0 0 -0 -2 -4 -5 -5 -3 -1 -2 -5 -8 -10 -7 -5 -4 -2
0 0 0 0 0 0 -0 -1 -0 -0 -0 -1 -1 -1 -1 -2 -2 -3 -3 -3 -4 -4 -5 -4 -4 -4 -4 -4 -4 -4 -4 -4 -4 -4 -4 -4 -4 -4 -5 -5 -5 -6 -6 -6 -5 -5 -5 -4 -4 -4 -5 -5 -5 -5 -5 -4 -4 -4 -5 -5 -5 -5 -5 -3 -3 -2 -2 -2 -1 -1 -2 -2 -2 -2 -2 -2 -1 -1 -2 -3 -5 -7 -10 -10 -8 -6 -2 -1 -0 -1 -2 -4 -6 -6 -4 -1 -1 -4 -9 -9 -7 -5 -4
-0 0 0 0 0 0 0 -0 -0 0 0 -0 -1 -1 -1 -2 -2 -3 -3 -3 -4 -4 -5 -4 -4 -4 -4 -3 -3 -3 -3 -4 -4 -3 -3 -4 -4 -4 -5 -6 -6 -6 -6 -6 -6 -5 -5 -5 -5 -5 -5 -6 -6 -6 -7 -6 -6 -6 -6 -6 -6 -5 -5 -4 -3 -3 -3 -3 -3 -3 -3 -2 -2 -2 -2 -2 -2 -2 -2 -2 -3 -4 -5 -8 -9 -9 -8 -4 -2 -0 0 -1 -4 -6 -8 -5 -3 -2 -3 -8 -9 -9 -6
-0 -0 0 0 0 0 0 -0 -0 0 1 -0 -1 -1 -1 -2 -2 -3 -3 -3 -4 -4 -4 -4 -4 -4 -3 -3 -2 -2 -3 -3 -3 -4 -4 -4 -5 -5 -6 -7 -7 -7 -7 -6 -6 -6 -6 -6 -6 -7 -7 -8 -8 -8 -9 -9 -9 -8 -8 -8 -7 -6 -6 -5 -5 -4 -4 -3 -3 -3 -4 -4 -4 -3 -3 -3 -3 -3 -3 -3 -2 -2 -3 -4 -6 -8 -10 -9 -6 -3 -0 0 -1 -2 -6 -7 -5 -2 -0 -3 -7 -9 -9
-0 -0 0 0 0 0 0 -0 -0 0 0 -0 -1 -1 -2 -2 -3 -3 -3 -3 -4 -4 -5 -4 -4 -4 -4 -3 -2 -2 -2 -3 -4 -4 -5 -6 -6 -7 -7 -7 -7 -7 -6 -6 -7 -7 -7 -8 -8 -9 -9 -10 -10 -11 -11 -12 -12 -11 -11 -10 -9 -9 -8 -7 -6 -5 -4 -4 -4 -4 -4 -5 -5 -4 -4 -4 -4 -4 -4 -4 -3 -3 -2 -3 -3 -5 -7 -9 -9 -7 -4 -1 -0 -0 -1 -4 -6 -6 -3 -1 -3 -7 -10
-0 -0 -0 -0 -0 -0 -0 -1 -1 -1 -0 -1 -1 -2 -2 -2 -3 -3 -3 -4 -4 -4 -5 -5 -5 -5 -5 -4 -3 -3 -3 -3 -4 -5 -6 -7 -7 -7 -7 -7 -7 -6 -6 -6 -6 -7 -8 -8 -8 -9 -9 -10 -11 -12 -13 -13 -14 -14 -14 -13 -12 -12 -11 -10 -9 -7 -5 -5 -5 -5 -5 -5 -5 -5 -5 -5 -5 -5 -5 -5 -5 -4 -3 -3 -3 -3 -3 -5 -7 -8 -7 -4 -2 -1 1 0 -3 -5 -6 -3 -1 -2 -6
-1 -1 -1 -1 -1 -1 -1 -1 -2 -1 -1 -1 -2 -2 -3 -3 -3 -4 -3 -3 -4 -4 -4 -4 -4 -5 -5 -5 -5 -5 -5 -5 -5 -6 -6 -7 -7 -6 -6 -6 -6 -6 -6 -6 -6 -6 -7 -8 -8 -8 -9 -9 -10 -11 -12 -13 -13 -14 -14 -14 -14 -14 -13 -12 -11 -10 -8 -7 -6 -6 -5 -5 -6 -6 -6 -6 -6 -6 -6 -6 -6 -5 -5 -4 -4 -3 -2 -3 -3 -5 -8 -7 -5 -3 -0 1 -1 -4 -6 -5 -3 -1 -2
-1 -1 -1 -1 -1 -1 -1 -2 -2 -2 -2 -2 -3 -3 -3 -4 -4 -4 -4 -4 -4 -4 -4 -4 -5 -5 -6 -6 -7 -7 -8 -8 -7 -7 -6 -6 -6 -5 -5 -5 -5 -5 -6 -6 -6 -6 -7 -7 -8 -8 -8 -8 -9 -9 -10 -10 -11 -11 -11 -12 -12 -12 -12 -12 -12 -11 -10 -9 -8 -7 -6 -6 -6 -6 -6 -6 -6 -6 -6 -6 -6 -6 -5 -5 -4 -4 -3 -2 -2 -2 -4 -6 -7 -5 -2 -0 -1 -2 -4 -6 -5 -3 -0
-1 -2 -2 -2 -2 -2 -2 -2 -3 -3 -3 -3 -3 -4 -4 -4 -4 -4 -4 -4 -4 -4 -5 -5 -5 -5 -6 -7 -8 -8 -9 -9 -8 -7 -6 -5 -5 -5 -5 -5 -5 -5 -5 -6 -6 -6 -6 -7 -7 -7 -7 -7 -8 -8 -8 -8 -8 -8 -8 -8 -9 -9 -9 -9 -10 -10 -10 -9 -9 -9 -8 -7 -7 -6 -6 -6 -6 -6 -6 -6 -6 -6 -5 -5 -5 -4 -4 -3 -2 -2 -2 -3 -5 -6 -5 -2 -0 0 -1 -4 -6 -5 -2
-2 -2 -2 -2 -2 -2 -2 -3 -3 -3 -3 -3 -3 -4 -4 -4 -5 -5 -5 -5 -5 -5 -5 -5 -5 -6 -7 -7 -8 -8 -8 -8 -7 -7 -6 -6 -5 -5 -5 -6 -5 -5 -5 -6 -6 -6 -6 -6 -6 -6 -7 -6 -6 -6 -7 -6 -6 -6 -5 -6 -6 -6 -6 -6 -7 -7 -7 -9 -9 -9 -9 -9 -8 -7 -7 -6 -6 -6 -6 -5 -5 -5 -5 -6 -6 -6 -5 -5 -4 -3 -1 -1 -1 -3 -4 -3 -1 0 1 -2 -5 -8 -7
-2 -2 -2 -2 -2 -2 -2 -3 -3 -3 -4 -4 -3 -4 -4 -4 -4 -4 -4 -5 -5 -5 -5 -5 -6 -6 -7 -7 -7 -7 -7 -7 -6 -6 -6 -6 -6 -6 -5 -6 -5 -5 -5 -6 -6 -6 -6 -6 -6 -5 -6 -6 -6 -5 -5 -5 -5 -5 -4 -5 -5 -5 -4 -5 -5 -5 -6 -7 -7 -8 -8 -8 -8 -8 -7 -7 -6 -5 -5 -4 -4 -5 -5 -6 -7 -7 -6 -6 -5 -4 -3 -1 -0 -0 -1 -4 -4 -2 1 -0 -3 -7 -10
-2 -2 -2 -2 -2 -2 -2 -2 -3 -3 -4 -4 -4 -3 -4 -4 -4 -4 -4 -4 -5 -5 -5 -6 -6 -6 -6 -6 -6 -5 -5 -5 -5 -5 -6 -6 -5 -5 -5 -5 -5 -5 -5 -5 -5 -5 -5 -5 -5 -5 -5 -5 -5 -5 -5 -5 -4 -4 -4 -4 -4 -4 -4 -4 -4 -4 -5 -4 -5 -6 -6 -6 -7 -7 -7 -6 -5 -5 -5 -4 -5 -5 -5 -6 -6 -6 -6 -6 -6 -5 -5 -4 -2 -1 -0 -3 -6 -6 -4 -1 -0 -2 -6
-2 -2 -2 -2 -2 -2 -2 -2 -3 -3 -3 -4 -4 -4 -4 -4 -4 -4 -5 -5 -5 -5 -5 -6 -6 -6 -6 -5 -5 -4 -4 -5 -5 -5 -5 -5 -5 -5 -5 -5 -5 -5 -5 -5 -5 -5 -5 -5 -5 -5 -5 -5 -5 -5 -4 -4 -4 -3 -3 -3 -3 -3 -4 -4 -4 -4 -4 -4 -4 -5 -5 -5 -5 -5 -5 -6 -6 -5 -5 -5 -5 -5 -5 -5 -5 -5 -5 -5 -6 -6 -6 -6 -5 -3 -2 -2 -4 -5 -6 -3 -0 1 0
-2 -2 -2 -2 -2 -2 -2 -3 -3 -3 -3 -4 -4 -4 -4 -5 -5 -5 -5 -6 -6 -6 -6 -6 -6 -6 -5 -5 -4 -4 -4 -4 -5 -5 -5 -5 -5 -5 -4 -5 -5 -5 -5 -5 -4 -4 -4 -4 -4 -4 -4 -4 -4 -4 -4 -4 -3 -3 -3 -3 -3 -3 -4 -4 -4 -3 -3 -4 -4 -4 -4 -4 -4 -4 -4 -5 -5 -6 -6 -5 -5 -5 -5 -5 -5 -5 -5 -5 -5 -6 -6 -7 -6 -6 -5 -3 -2 -2 -5 -5 -3 1 3
-2 -2 -3 -3 -3 -3 -3 -3 -3 -3 -4 -4 -4 -4 -5 -5 -5 -6 -6 -6 -6 -6 -6 -6 -6 -5 -4 -4 -4 -4 -4 -3 -4 -5 -5 -5 -4 -4 -4 -4 -4 -5 -5 -5 -4 -4 -4 -4 -4 -4 -3 -3 -3 -3 -3 -3 -3 -3 -2 -3 -3 -3 -4 -4 -3 -3 -3 -4 -4 -4 -3 -4 -5 -5 -4 -4 -5 -6 -5 -5 -5 -5 -5 -4 -4 -5 -5 -5 -6 -6 -6 -7 -7 -6 -6 -5 -3 -2 -3 -6 -6 -3 1
-3 -3 -3 -3 -3 -3 -3 -3 -3 -3 -4 -4 -4 -5 -5 -5 -5 -6 -6 -6 -6 -6 -6 -6 -5 -5 -4 -4 -4 -4 -3 -3 -2 -3 -4 -5 -4 -4 -4 -4 -4 -4 -5 -4 -4 -4 -4 -3 -3 -3 -2 -2 -2 -2 -2 -2 -2 -2 -3 -3 -3 -3 -4 -3 -3 -3 -3 -3 -4 -4 -5 -5 -5 -5 -5 -4 -4 -5 -5 -5 -5 -5 -4 -4 -4 -5 -5 -5 -6 -6 -5 -6 -6 -6 -6 -5 -5 -3 -2 -4 -6 -7 -2
-3 -3 -3 -3 -3 -3 -3 -3 -4 -4 -4 -4 -4 -5 -5 -5 -5 -6 -6 -6 -6 -6 -6 -6 -5 -5 -4 -4 -3 -3 -3 -3 -2 -2 -2 -3 -4 -4 -3 -3 -3 -4 -4 -4 -4 -4 -3 -3 -2 -2 -2 -1 -1 -1 -2 -2 -2 -2 -3 -3 -3 -3 -3 -3 -3 -3 -3 -3 -4 -4 -5 -5 -5 -5 -5 -4 -5 -5 -5 -5 -5 -5 -4 -4 -4 -4 -4 -5 -5 -5 -5 -6 -6 -6 -6 -6 -5 -4 -2 -2 -3 -6 -6
-3 -3 -3 -3 -3 -3 -3 -3 -3 -4 -4 -4 -4 -5 -5 -5 -5 -5 -6 -6 -6 -6 -5 -5 -4 -4 -4 -4 -4 -4 -4 -3 -3 -2 -2 -2 -3 -4 -3 -3 -3 -3 -3 -4 -4 -3 -3 -3 -2 -1 -1 -1 -1 -1 -1 -2 -2 -2 -3 -3 -3 -3 -3 -3 -3 -3 -3 -3 -4 -5 -5 -5 -5 -5 -4 -5 -6 -6 -6 -5 -4 -4 -4 -5 -5 -4 -4 -5 -5 -5 -6 -6 -6 -6 -7 -7 -6 -5 -4 -3 -4 -5 -6
-3 -3 -3 -3 -3 -3 -3 -3 -3 -4 -4 -4 -4 -4 -5 -5 -4 -4 -5 -5 -5 -5 -5 -4 -4 -4 -4 -4 -4 -4 -4 -4 -3 -3 -2 -2 -3 -3 -4 -3 -3 -3 -3 -3 -3 -3 -2 -2 -2 -1 -0 -0 -1 -1 -1 -1 -1 -2 -2 -3 -3 -3 -3 -3 -3 -4 -3 -4 -4 -5 -6 -5 -5 -5 -5 -4 -5 -5 -6 -5 -4 -4 -4 -5 -5 -5 -5 -6 -6 -5 -5 -6 -6 -6 -6 -7 -7 -7 -7 -5 -3 -1 -2
-2 -2 -2 -2 -2 -3 -3 -3 -3 -3 -4 -4 -4 -4 -4 -5 -4 -4 -4 -4 -4 -4 -4 -4 -4 -4 -4 -3 -3 -4 -5 -5 -4 -3 -3 -2 -2 -3 -4 -4 -3 -3 -3 -3 -3 -3 -2 -1 -2 -2 -1 -1 -1 -1 -1 -1 -1 -1 -1 -2 -2 -3 -3 -4 -4 -4 -4 -5 -5 -4 -5 -5 -6 -6 -6 -6 -5 -5 -6 -5 -5 -5 -5 -4 -4 -4 -5 -5 -4 -4 -4 -5 -6 -6 -5 -4 -4 -5 -5 -5 -5 -5 -7
-2 -2 -2 -2 -2 -2 -3 -3 -3 -3 -3 -3 -4 -4 -4 -4 -4 -4 -4 -4 -4 -4 -4 -4 -4 -3 -3 -3 -3 -3 -4 -5 -5 -4 -3 -2 -2 -2 -3 -3 -3 -3 -2 -2 -2 -3 -3 -2 -2 -2 -2 -1 -1 -1 -1 -1 -1 -1 -0 -0 -1 -2 -4 -4 -4 -5 -5 -5 -5 -4 -4 -5 -6 -7 -7 -7 -7 -6 -5 -5 -6 -6 -5 -4 -5 -6 -6 -4 -4 -4 -3 -3 -4 -5 -3 -3 -3 -2 -1 -1 -1 -0 2
-2 -2 -2 -2 -2 -2 -3 -3 -3 -3 -3 -3 -3 -3 -4 -4 -4 -4 -4 -4 -4 -3 -3 -3 -3 -3 -3 -3 -3 -3 -4 -5 -5 -5 -4 -3 -2 -2 -2 -2 -2 -2 -2 -2 -2 -2 -2 -2 -2 -2 -2 -1 -1 -1 -1 -1 -2 -1 -0 -0 -1 -2 -3 -4 -4 -5 -5 -5 -5 -5 -5 -6 -7 -7 -7 -7 -7 -7 -6 -7 -7 -7 -6 -5 -6 -6 -5 -5 -4 -3 -4 -5 -4 -3 -3 -3 -1 1 2 6 10 13 15
-2 -2 -2 -2 -2 -2 -2 -2 -3 -3 -3 -3 -3 -3 -3 -4 -4 -4 -4 -4 -4 -4 -4 -3 -3 -3 -3 -2 -2 -3 -3 -4 -4 -4 -4 -4 -3 -2 -2 -2 -2 -2 -2 -1 -1 -1 -1 -1 -1 -2 -2 -1 -1 -1 -1 -1 -2 -2 -2 -1 -1 -2 -3 -3 -4 -4 -5 -4 -4 -4 -5 -6 -7 -7 -8 -8 -8 -7 -7 -7 -7 -7 -6 -7 -7 -6 -5 -4 -3 -3 -3 -3 -3 -2 -4 -5 -5 -6 -8 -7 -6 -4 -3
-2 -2 -2 -2 -2 -2 -2 -2 -2 -3 -3 -3 -3 -3 -3 -3 -3 -3 -3 -3 -4 -4 -4 -4 -4 -3 -3 -3 -2 -2 -2 -3 -4 -4 -4 -4 -4 -3 -2 -2 -2 -1 -1 -1 -1 -1 -1 -2 -1 -1 -1 -1 -1 -1 -1 -1 -2 -2 -3 -3 -3 -3 -3 -3 -3 -3 -3 -4 -5 -5 -5 -5 -6 -7 -8 -9 -9 -8 -7 -7 -7 -7 -8 -7 -6 -6 -6 -5 -3 -1 -1 -0 -1 -2 -4 -6 -8 -9 -10 -11 -13 -14 -16
-2 -2 -2 -2 -2 -2 -2 -2 -2 -2 -2 -2 -2 -2 -2 -2 -3 -3 -3 -3 -3 -3 -4 -3 -3 -3 -3 -3 -2 -1 -1 -2 -3 -4 -4 -3 -3 -3 -2 -2 -1 -1 -0 -1 -1 -1 -1 -1 -2 -2 -1 -1 -1 -1 -1 -1 -1 -2 -3 -3 -3 -3 -3 -3 -3 -3 -3 -4 -5 -6 -6 -6 -6 -6 -7 -9 -9 -9 -7 -7 -7 -8 -8 -8 -7 -6 -6 -6 -4 -2 -1 -1 -1 -2 -3 -3 -3 -1 3 5 7 7 2
-2 -2 -2 -2 -2 -2 -2 -3 -3 -2 -2 -2 -2 -2 -2 -2 -2 -2 -3 -3 -2 -2 -2 -2 -2 -2 -2 -2 -1 -1 -1 -1 -2 -3 -4 -3 -2 -2 -2 -2 -1 -2 -1 -1 -1 -2 -1 -1 -1 -1 -1 -2 -1 -1 -1 -1 -1 -2 -3 -3 -4 -3 -3 -3 -3 -3 -4 -5 -5 -6 -6 -6 -6 -6 -6 -8 -9 -9 -9 -7 -7 -7 -7 -8 -7 -7 -7 -5 -4 -2 -3 -4 -4 -3 -3 -4 -3 -1 1 4 7 10 9
-2 -2 -2 -2 -2 -2 -2 -2 -2 -2 -2 -2 -2 -2 -2 -2 -2 -2 -2 -2 -2 -2 -1 -1 -1 -1 -1 -0 -0 -0 -0 -1 -1 -1 -3 -3 -2 -2 -2 -1 -1 -1 -2 -2 -1 -1 -1 -1 -1 -1 -1 -1 -1 -1 -1 -1 -1 -2 -3 -4 -4 -5 -5 -5 -5 -5 -5 -5 -6 -6 -6 -6 -6 -6 -6 -7 -8 -9 -9 -8 -7 -7 -7 -6 -6 -7 -7 -6 -5 -4 -4 -6 -6 -6 -6 -6 -7 -8 -10 -12 -14 -14 -13
-2 -2 -2 -2 -2 -2 -2 -2 -2 -2 -2 -2 -2 -2 -2 -2 -2 -2 -2 -2 -2 -2 -2 -1 -1 -1 -1 -1 -0 -0 -0 -1 -1 -1 -1 -2 -2 -2 -1 -2 -2 -1 -2 -2 -2 -2 -1 -1 -1 -1 -1 -1 -1 -1 -1 -1 -1 -2 -3 -4 -4 -5 -6 -6 -6 -7 -7 -6 -6 -6 -6 -6 -6 -6 -6 -7 -8 -8 -8 -8 -7 -7 -7 -6 -6 -6 -7 -8 -7 -6 -6 -6 -6 -6 -7 -6 -5 -6 -9 -13 -16 -18 -21
-2 -2 -2 -1 -2 -2 -2 -2 -2 -2 -2 -2 -2 -2 -2 -2 -2 -3 -2 -2 -2 -2 -3 -2 -1 -1 -0 -1 -1 -0 0 -1 -2 -2 -1 -1 -1 -1 -1 -1 -2 -2 -2 -2 -2 -2 -2 -1 -1 -2 -2 -1 -1 -1 -1 -1 -2 -2 -3 -4 -4 -4 -5 -5 -6 -6 -7 -8 -8 -7 -7 -6 -6 -6 -6 -7 -8 -8 -8 -8 -7 -6 -6 -6 -7 -7 -7 -8 -9 -8 -7 -6 -6 -6 -7 -5 -3 -1 -0 4 5 2 -2
-2 -2 -2 -1 -1 -2 -2 -2 -2 -2 -2 -2 -2 -2 -2 -2 -2 -2 -3 -2 -2 -2 -3 -3 -2 -1 -0 0 0 0 -0 -1 -2 -2 -3 -2 -2 -2 -2 -1 -1 -2 -2 -2 -2 -2 -3 -3 -2 -2 -2 -1 -1 -1 -1 -1 -2 -2 -3 -4 -4 -4 -4 -4 -4 -5 -7 -8 -9 -8 -7 -6 -5 -5 -6 -6 -7 -7 -8 -8 -7 -7 -6 -6 -6 -7 -7 -8 -8 -9 -8 -6 -6 -6 -6 -4 -4 -2 3 10 12 12 14
-2 -2 -2 -1 -1 -2 -2 -2 -2 -2 -2 -2 -2 -2 -2 -2 -2 -2 -2 -2 -1 -1 -3 -3 -3 -1 -0 0 0 1 0 -1 -1 -1 -2 -3 -3 -2 -2 -2 -2 -2 -2 -2 -2 -3 -3 -3 -3 -3 -2 -2 -2 -2 -2 -2 -3 -3 -3 -3 -3 -3 -3 -3 -4 -4 -5 -6 -7 -8 -7 -6 -5 -5 -5 -5 -6 -6 -6 -7 -7 -7 -7 -7 -7 -6 -6 -7 -7 -7 -7 -5 -5 -5 -3 -2 -2 -1 4 2 -2 -2 8
-2 -2 -2 -1 -1 -2 -2 -2 -2 -2 -2 -2 -1 -1 -2 -2 -2 -2 -2 -1 -1 -0 -1 -3 -3 -3 -1 -0 -0 0 1 0 -1 -1 -2 -3 -3 -3 -2 -2 -2 -2 -2 -2 -3 -3 -3 -3 -3 -3 -3 -2 -3 -3 -4 -3 -3 -3 -3 -3 -3 -3 -3 -3 -3 -3 -2 -2 -4 -5 -6 -6 -5 -4 -4 -4 -5 -5 -5 -5 -5 -5 -5 -6 -6 -6 -6 -5 -5 -5 -5 -5 -5 -4 -1 -1 -0 3 10 5 -2 -4 2
-2 -2 -1 -1 -1 -1 -2 -2 -2 -2 -1 -1 -1 -1 -1 -1 -2 -2 -2 -2 -1 0 1 -0 -2 -3 -3 -1 -1 -1 -0 -0 -1 -2 -2 -2 -3 -3 -3 -2 -2 -1 -2 -2 -3 -4 -5 -4 -4 -4 -4 -3 -3 -3 -5 -4 -4 -3 -3 -3 -3 -3 -3 -2 -2 -1 0 -0 -1 -3 -5 -5 -5 -4 -4 -4 -4 -4 -4 -3 -3 -3 -4 -6 -6 -6 -5 -4 -4 -3 -3 -3 -3 -3 -1 -2 -3 -1 6 5 2 2 6
-2 -2 -1 -1 -1 -1 -1 -1 -1 -1 -1 -1 -1 -1 -1 -1 -1 -2 -2 -2 -2 -1 1 1 0 -1 -2 -2 -1 -1 -1 -0 -1 -2 -3 -3 -2 -2 -2 -2 -3 -3 -3 -2 -2 -3 -5 -5 -4 -4 -5 -5 -4 -3 -3 -5 -5 -5 -4 -4 -4 -4 -3 -2 -1 -0 0 -0 -1 -2 -4 -5 -5 -5 -4 -3 -3 -3 -3 -2 -2 -3 -4 -6 -6 -6 -5 -4 -3 -3 -2 -3 -4 -4 -2 -2 -4 -5 -3 -3 -1 3 8
-2 -2 -1 -1 -1 -1 -1 -1 -1 -1 -1 -1 -1 -1 -1 -0 -1 -1 -1 -2 -2 -2 -0 0 0 -0 -1 -1 -1 -1 -1 -1 -1 -1 -2 -3 -3 -4 -3 -2 -2 -3 -5 -5 -4 -2 -2 -4 -4 -4 -3 -5 -6 -6 -4 -5 -5 -6 -5 -5 -5 -5 -4 -3 -2 -1 -0 -1 -1 -2 -3 -3 -4 -5 -5 -5 -5 -5 -4 -4 -4 -4 -5 -6 -7 -6 -5 -4 -3 -3 -3 -3 -3 -4 -4 -4 -5 -7 -7 -4 0 4 5
-2 -1 -1 -1 -1 -1 -1 -1 -1 -1 -1 -1 -1 -1 -0 -0 -0 -0 -1 -1 -2 -3 -2 -0 0 0 -0 -1 -1 -0 -0 -2 -2 -2 -3 -2 -2 -3 -5 -6 -4 -1 -0 -4 -5 -5 -2 -4 -5 -4 -3 -3 -5 -7 -6 -6 -6 -6 -6 -5 -5 -5 -4 -4 -3 -2 -2 -2 -2 -3 -3 -2 -3 -4 -5 -7 -8 -9 -9 -8 -7 -7 -7 -7 -7 -6 -6 -5 -4 -3 -2 -1 -2 -3 -4 -7 -8 -9 -8 -3 3 6 1
-1 -1 -1 -1 -1 -1 -1 -1 -1 -1 -1 -1 -1 -1 -0 -0 -0 -0 -0 -0 -1 -2 -2 -1 -0 1 1 -0 -1 -1 0 -1 -2 -2 -2 -4 -3 -2 -0 -5 -7 -7 -2 1 -1 -4 -5 -4 -5 -7 -6 -4 -5 -6 -7 -6 -6 -6 -6 -5 -4 -4 -5 -4 -4 -3 -3 -3 -3 -3 -3 -2 -2 -2 -3 -5 -8 -10 -11 -11 -10 -9 -8 -8 -7 -6 -6 -5 -4 -3 -2 -2 -2 -3 -3 -6 -7 -8 -9 -4 3 7 4
-2 -1 -1 -1 -1 -1 -1 -1 -1 -1 -1 -1 -1 -1 -0 -0 -0 -0 0 0 0 -0 -1 -2 -1 -1 0 1 0 -1 -1 -0 -1 -2 -0 -1 -4 -6 -3 1 -1 -7 -10 -5 -3 -3 -5 -3 -3 -4 -7 -6 -5 -5 -6 -5 -5 -6 -7 -6 -5 -4 -5 -4 -4 -3 -3 -4 -4 -4 -3 -3 -3 -2 -2 -3 -5 -7 -10 -12 -12 -11 -9 -8 -7 -6 -6 -5 -4 -4 -3 -3 -3 -3 -3 -4 -5 -7 -9 -7 1 8 9
-1 -1 -1 -1 -1 -1 -1 -1 -1 -1 -2 -1 -1 -1 -0 0 0 0 -0 -0 -0 -0 -1 -2 -2 -3 -3 -2 0 1 -0 -0 -1 -2 -5 -1 0 -2 -8 -5 -1 1 -4 -8 -7 -5 -6 -5 -3 -1 -3 -4 -4 -3 -4 -5 -5 -5 -6 -6 -5 -5 -4 -4 -4 -3 -3 -4 -5 -5 -4 -3 -3 -2 -2 -3 -4 -5 -7 -9 -11 -11 -11 -9 -8 -7 -6 -5 -4 -3 -3 -4 -3 -3 -3 -2 -4 -6 -9 -5 1 5 8
-1 -1 -1 -1 -1 -1 -1 -1 -1 -2 -2 -2 -1 -1 -0 -0 0 0 -0 -1 -1 -1 -1 -2 -3 -3 -3 -4 -3 -1 1 -1 -0 -0 -3 -7 -4 -0 -1 -8 -8 -4 0 -4 -5 -4 -4 -8 -7 -4 -2 -4 -3 -2 -2 -4 -4 -4 -3 -3 -5 -6 -5 -4 -4 -4 -4 -5 -5 -5 -4 -3 -3 -2 -2 -3 -3 -3 -4 -4 -7 -9 -11 -11 -10 -9 -7 -6 -4 -3 -3 -3 -3 -2 -2 -2 -4 -7 -6 -4 -6 -7 -3
-1 -1 -1 -1 -1 -1 -0 -1 -1 -2 -2 -2 -1 -1 -0 -0 -0 0 1 -0 -1 -2 -1 -1 -2 -4 -3 -3 -3 -3 1 -0 -2 -1 2 -4 -8 -8 -2 -4 -8 -11 -7 -4 -3 -1 4 -2 -5 -5 -1 -3 -4 -4 -2 -4 -5 -5 -3 -3 -5 -7 -7 -6 -6 -6 -6 -7 -6 -6 -4 -3 -3 -2 -2 -2 -2 -2 -2 -2 -3 -5 -8 -10 -11 -11 -10 -9 -7 -6 -5 -5 -4 -2 -1 -2 -4 -5 2 9 7 2 -2
-1 -1 -1 -1 -1 -1 -0 -1 -1 -1 -2 -2 -1 -1 -0 -0 -0 -0 0 1 -0 -1 -2 -1 -1 -2 -5 -3 -3 -3 -2 1 -2 -4 -1 1 -3 -8 -9 -4 -6 -10 -13 -7 -6 -6 -1 4 2 -1 1 0 -3 -4 -2 -3 -6 -9 -8 -7 -7 -8 -9 -8 -8 -7 -8 -9 -8 -6 -4 -3 -2 -1 -1 -1 -1 -1 -2 -1 -2 -2 -3 -6 -8 -10 -11 -11 -10 -8 -7 -6 -4 -2 0 0 -2 -2 6 16 19 15 7
-1 -1 -1 -1 -1 -0 -0 -1 -1 -1 -2 -1 -1 -1 -0 -0 0 0 -0 -0 -0 -1 -2 -3 -1 -0 -2 -4 -3 -2 -3 -0 0 -1 -5 -0 1 -2 -11 -11 -7 -6 -13 -15 -13 -9 -10 -1 4 5 -1 -1 -3 -4 -2 1 -1 -6 -9 -8 -9 -9 -9 -8 -8 -8 -8 -9 -9 -7 -5 -4 -2 -1 0 -1 -1 -0 0 -0 -1 -1 -3 -5 -7 -8 -8 -6 -5 -5 -6 -6 -4 -1 2 1 -2 -4 -6 -1 8 14 13
-1 -1 -1 -1 -1 -0 -1 -1 -1 -1 -2 -2 -1 -1 0 0 0 0 0 -0 -0 -0 -1 -2 -3 -2 -0 -2 -3 -2 -0 -1 -0 0 -3 -4 1 5 2 -7 -8 -6 -4 -9 -12 -11 -2 -4 -3 -1 1 0 -4 -8 -8 -2 1 -0 -4 -7 -9 -9 -9 -9 -8 -8 -9 -10 -9 -8 -7 -6 -4 -2 -0 -1 -1 -1 -1 -1 -1 -1 -3 -6 -8 -8 -8 -7 -5 -3 -3 -4 -4 -2 -1 -2 -5 -9 -13 -10 -3 3 9
-1 -1 -1 -1 -1 -1 -1 -1 -1 -1 -2 -2 -2 -1 0 0 0 0 0 0 0 0 0 -1 -2 -3 -2 -2 -3 -3 0 1 1 1 1 -5 -5 1 8 3 -4 -11 -13 -8 -9 -11 -10 -3 -7 -14 -13 1 2 -6 -15 -12 -8 -4 -2 -5 -8 -9 -9 -9 -9 -8 -9 -9 -8 -7 -7 -8 -7 -5 -3 -3 -3 -4 -4 -4 -3 -3 -3 -4 -5 -6 -6 -6 -5 -3 -2 -3 -3 -3 -2 -5 -7 -8 -2 1 -2 -3 0
-1 -1 -1 -1 -1 -1 -1 -1 -1 -1 -1 -2 -2 -1 -0 0 0 1 0 0 0 -0 -0 0 -1 -2 -3 -2 -3 -4 -4 -1 1 2 6 2 -4 -7 -2 3 3 2 -0 -2 -2 -6 -18 -15 -11 -11 -19 -6 2 3 -2 -10 -12 -9 -4 -4 -5 -6 -6 -7 -8 -8 -9 -9 -7 -6 -6 -6 -8 -8 -7 -6 -6 -6 -5 -4 -4 -3 -2 -2 -3 -3 -3 -1 -0 0 -1 -3 -4 -4 -3 -6 -8 -4 8 13 8 2 1
-1 -1 -1 -1 -1 -1 -1 -1 -1 -1 -1 -1 -1 -1 -0 0 0 0 0 0 -0 -0 -1 -0 -0 -1 -3 -3 -2 -2 -4 -3 -2 -0 1 7 5 -1 -8 -3 1 2 -0 2 1 -2 -6 -15 -21 -23 -23 -9 -3 -0 3 1 -4 -9 -8 -5 -4 -4 -5 -6 -7 -8 -10 -9 -8 -7 -6 -5 -7 -9 -10 -8 -8 -7 -6 -4 -3 -2 -1 -1 -2 -3 -4 -2 -1 -0 -1 -5 -8 -9 -9 -11 -10 -5 7 7 3 0 -0
-1 -1 -1 -1 -1 -1 -1 -1 -1 -1 -1 -1 -1 -1 -0 -0 0 0 -0 -0 -0 -1 -1 -1 -0 0 -1 -3 -4 -3 -3 -2 -0 1 -2 0 6 9 3 -4 -4 -1 3 -0 -2 -3 -2 -1 -6 -19 -37 -22 -11 -5 -7 -1 -0 -3 -7 -9 -7 -5 -4 -5 -6 -8 -9 -9 -9 -9 -9 -6 -5 -7 -10 -9 -8 -8 -7 -4 -2 -1 -1 -2 -1 -1 -2 -2 -1 -0 -1 -4 -8 -11 -13 -12 -7 -0 5 -2 -6 -7 -7
-1 -1 -1 -1 -1 -1 -1 -1 -1 -1 -1 -1 -1 -1 -0 -0 -0 -0 -0 -0 -0 -0 -1 -2 -1 -0 1 -1 -3 -4 -4 -4 -1 2 3 -2 -2 3 9 5 -1 -4 -3 -3 -3 -4 -4 2 5 -1 -22 -35 -28 -13 -1 -6 -6 -3 -1 -4 -5 -6 -5 -4 -5 -6 -8 -8 -8 -9 -10 -8 -5 -4 -6 -7 -7 -7 -6 -4 -3 -2 -2 -3 -2 -1 -1 -0 1 3 2 1 -2 -5 -8 -8 -5 -3 -4 -9 -10 -10 -9
-1 -1 -1 -1 -1 -1 -1 -1 -1 -1 -0 -0 -1 -1 -0 -0 -0 -0 -0 -0 -0 0 -0 -1 -1 -1 0 -0 -1 -3 -4 -4 -3 -1 2 0 -2 -3 0 5 5 2 -0 -1 -1 -0 -0 -0 -1 0 2 -16 -35 -38 -11 -2 -2 -5 -5 -2 -0 -1 -4 -5 -5 -6 -7 -8 -7 -7 -9 -10 -7 -3 -2 -4 -5 -5 -6 -6 -5 -4 -4 -3 -3 -2 -1 -0 1 3 5 5 3 0 -3 -6 -7 -8 -10 -11 -11 -9 -6
-0 -1 -1 -1 -1 -1 -1 -1 -1 -1 -0 -0 -0 -1 -0 0 -0 -0 -1 -1 -0 -0 -1 -1 -0 -0 -0 -0 -1 -2 -3 -3 -2 -1 -1 -1 -1 -1 -2 -0 2 4 3 2 2 3 3 0 -2 -2 4 3 -12 -32 -48 -25 -8 0 -6 -7 -3 1 2 -1 -4 -6 -7 -7 -6 -5 -6 -8 -8 -5 -2 -3 -4 -5 -7 -8 -7 -5 -3 -3 -2 -2 -2 -2 -1 0 2 2 1 -1 -3 -4 -4 -6 -8 -11 -11 -9 -5
-0 -1 -1 -1 -1 -1 -1 -1 -1 -0 0 -0 -0 -0 -0 0 0 -0 -1 -1 -0 -0 -1 -1 -1 -0 -0 -0 -1 -1 -3 -3 -1 0 1 -1 -2 -1 2 -0 -1 0 4 3 3 4 4 4 4 3 2 3 2 -5 -25 -40 -30 -13 -8 -5 -3 -1 -1 0 -1 -4 -7 -7 -5 -3 -4 -5 -6 -6 -4 -3 -3 -4 -6 -9 -9 -7 -3 -3 -2 -1 -2 -3 -2 -1 -1 -1 -2 -3 -4 -4 -5 -7 -8 -10 -11 -9 -3
Height
1581 1580 1579 1579 1578 1578 1577 1576 1576 1575 1575 1574 1574 1573 1572 1572 1571 1570 1570 1569 1569 1568 1568 1567 1566 1565 1565 1564 1564 1564 1563 1562 1562 1561 1560 1560 1559 1558 1557 1556 1556 1555 1554 1552 1551 1550 1550 1549 1549 1548 1547 1547 1546 1546 1546 1545 1545 1544 1544 1544 1543 1543 1543 1543 1543 1542 1542 1541 1540 1539 1538 1538 1538 1537 1537 1537 1536 1536 1536 1536 1536 1536 1536 1536 1536 1536 1536 1536 1536 1535 1535 1535 1535 1535 1535 1535 1535 1535 1535 1534 1534 1534 1534
1580 1579 1579 1578 1578 1577 1577 1576 1575 1575 1574 1574 1573 1573 1572 1572 1571 1570 1570 1569 1569 1568 1568 1567 1566 1566 1565 1565 1564 1564 1563 1563 1562 1561 1561 1560 1559 1558 1557 1556 1555 1554 1554 1552 1551 1550 1550 1549 1548 1547 1546 1546 1545 1545 1544 1544 1544 1544 1543 1542 1542 1541 1541 1541 1541 1541 1541 1541 1540 1539 1539 1538 1537 1537 1536 1536 1535 1535 1535 1535 1535 1535 1535 1535 1535 1535 1535 1535 1534 1534 1534 1534 1534 1534 1534 1534 1534 1534 1534 1534 1533 1533 1533
1580 1579 1579 1578 1577 1577 1576 1576 1575 1575 1574 1574 1573 1573 1572 1571 1571 1570 1570 1569 1569 1568 1568 1567 1567 1566 1565 1565 1565 1564 1564 1563 1562 1562 1561 1560 1559 1559 1557 1556 1555 1554 1554 1552 1551 1550 1550 1549 1548 1546 1546 1545 1544 1544 1544 1543 1543 1542 1542 1541 1541 1540 1540 1540 1540 1539 1539 1539 1539 1539 1539 1538 1537 1536 1536 1535 1535 1534 1534 1534 1534 1534 1534 1534 1534 1533 1533 1533 1533 1533 1533 1533 1533 1532 1532 1532 1532 1532 1532 1532 1532 1532 1532
1579 1579 1578 1578 1577 1577 1576 1576 1575 1575 1574 1574 1573 1573 1572 1571 1571 1570 1570 1569 1569 1569 1568 1568 1567 1566 1566 1565 1565 1564 1564 1563 1563 1562 1561 1560 1559 1559 1558 1557 1556 1555 1554 1553 1551 1550 1550 1549 1548 1547 1546 1545 1544 1543 1543 1542 1542 1541 1541 1540 1540 1539 1539 1539 1539 1538 1538 1538 1538 1538 1538 1537 1537 1536 1535 1534 1534 1533 1533 1533 1533 1533 1533 1533 1532 1532 1532 1532 1532 1532 1532 1531 1531 1531 1531 1531 1531 1531 1531 1531 1531 1530 1530
1579 1579 1578 1577 1577 1576 1576 1575 1575 1574 1574 1574 1573 1572 1572 1571 1571 1570 1570 1569 1569 1569 1568 1568 1567 1567 1566 1566 1565 1565 1564 1564 1563 1562 1561 1560 1560 1559 1558 1557 1556 1555 1554 1553 1552 1550 1550 1549 1548 1547 1546 1545 1544 1543 1543 1542 1541 1540 1540 1539 1539 1539 1539 1538 1538 1537 1537 1537 1537 1537 1537 1536 1536 1535 1535 1534 1533 1533 1532 1532 1532 1531 1531 1531 1531 1531 1530 1530 1530 1530 1530 1530 1529 1529 1529 1529 1529 1529 1529 1529 1529 1529 1529
1579 1579 1578 1577 1577 1576 1576 1575 1575 1574 1574 1573 1573 1572 1572 1571 1571 1571 1570 1570 1569 1569 1568 1568 1567 1567 1566 1566 1565 1565 1564 1564 1563 1562 1561 1560 1559 1559 1558 1557 1556 1555 1554 1553 1552 1551 1550 1549 1548 1547 1546 1545 1544 1544 1543 1542 1541 1540 1539 1539 1538 1538 1538 1537 1537 1536 1536 1536 1536 1536 1535 1535 1535 1534 1534 1534 1533 1532 1531 1531 1531 1530 1530 1530 1530 1529 1529 1529 1529 1529 1529 1528 1528 1528 1527 1527 1527 1527 1528 1528 1528 1528 1527
1579 1578 1578 1577 1576 1576 1575 1575 1575 1574 1574 1573 1573 1573 1572 1571 1571 1571 1570 1570 1569 1569 1568 1568 1567 1567 1566 1566 1565 1565 1564 1563 1563 1562 1561 1560 1559 1559 1558 1557 1556 1555 1554 1553 1552 1551 1550 1549 1548 1547 1546 1545 1545 1544 1543 1543 1542 1540 1539 1539 1538 1537 1537 1536 1536 1535 1535 1535 1535 1534 1534 1534 1534 1533 1533 1533 1532 1532 1531 1530 1530 1529 1529 1529 1528 1528 1528 1527 1527 1527 1527 1527 1526 1526 1526 1526 1525 1525 1525 1526 1526 1526 1526
1578 1578 1577 1577 1576 1576 1575 1575 1574 1574 1574 1574 1573 1573 1572 1572 1571 1571 1570 1569 1569 1569 1568 1568 1567 1567 1566 1566 1565 1564 1564 1563 1562 1561 1560 1559 1559 1558 1557 1556 1555 1554 1554 1552 1551 1550 1549 1548 1547 1547 1546 1545 1544 1544 1543 1542 1541 1540 1539 1539 1538 1537 1536 1536 1535 1534 1534 1534 1534 1534 1533 1533 1532 1532 1532 1531 1531 1530 1530 1529 1529 1528 1528 1527 1527 1526 1526 1526 1525 1525 1525 1525 1525 1525 1525 1524 1524 1524 1524 1523 1524 1524 1525
1578 1578 1577 1576 1576 1575 1575 1575 1574 1574 1574 1574 1573 1573 1572 1572 1571 1571 1570 1569 1569 1569 1568 1568 1567 1567 1566 1565 1565 1564 1563 1562 1562 1561 1560 1559 1558 1557 1556 1555 1554 1554 1553 1552 1551 1550 1549 1548 1547 1546 1545 1544 1544 1543 1542 1542 1541 1540 1539 1538 1538 1537 1536 1536 1535 1534 1534 1533 1533 1532 1532 1531 1531 1530 1530 1529 1529 1529 1529 1528 1528 1527 1526 1525 1525 1524 1524 1524 1524 1523 1523 1523 1523 1523 1523 1523 1523 1523 1522 1522 1521 1522 1522
1578 1577 1577 1576 1576 1575 1575 1574 1574 1574 1574 1574 1573 1573 1572 1572 1571 1570 1570 1569 1569 1568 1568 1567 1567 1566 1566 1565 1564 1564 1563 1562 1561 1560 1559 1558 1557 1556 1555 1554 1554 1553 1552 1551 1550 1549 1548 1547 1546 1545 1544 1543 1542 1542 1541 1541 1540 1539 1539 1538 1537 1537 1536 1535 1534 1534 1533 1532 1532 1531 1531 1530 1529 1529 1529 1528 1528 1528 1527 1527 1526 1525 1525 1524 1524 1523 1522 1522 1522 1521 1521 1521 1521 1521 1521 1521 1521 1521 1521 1520 1520 1520 1520
1577 1577 1576 1576 1575 1575 1575 1574 1574 1574 1574 1573 1573 1573 1572 1571 1571 1570 1570 1569 1569 1568 1568 1567 1567 1566 1565 1564 1564 1563 1562 1561 1560 1559 1559 1558 1557 1556 1555 1554 1553 1552 1551 1550 1549 1548 1547 1546 1545 1544 1543 1542 1541 1541 1540 1540 1539 1539 1538 1537 1537 1536 1535 1535 1534 1533 1532 1531 1531 1530 1529 1529 1528 1528 1527 1527 1527 1526 1526 1525 1524 1524 1523 1523 1522 1521 1521 1520 1520 1519 1519 1519 1519 1519 1519 1519 1519 1519 1519 1519 1519 1518 1518
1577 1576 1576 1576 1575 1575 1574 1574 1574 1574 1574 1573 1573 1572 1572 1571 1570 1570 1569 1569 1568 1568 1567 1567 1566 1565 1565 1564 1563 1562 1561 1560 1560 1559 1558 1557 1556 1555 1554 1553 1552 1551 1550 1549 1548 1547 1546 1545 1544 1543 1542 1541 1541 1540 1539 1539 1538 1538 1537 1537 1536 1536 1535 1534 1534 1533 1532 1531 1530 1529 1528 1528 1527 1526 1526 1526 1525 1525 1524 1524 1523 1522 1522 1521 1521 1520 1519 1519 1519 1518 1518 1518 1517 1517 1517 1517 1517 1517 1517 1517 1517 1517 1516
1577 1576 1576 1575 1575 1575 1574 1574 1574 1574 1573 1573 1572 1572 1571 1571 1570 1569 1569 1568 1568 1567 1566 1566 1565 1565 1564 1564 1563 1562 1561 1560 1559 1558 1557 1556 1555 1554 1553 1552 1551 1550 1549 1548 1547 1546 1545 1544 1543 1542 1541 1541 1540 1539 1539 1538 1538 1537 1537 1536 1536 1535 1534 1534 1533 1532 1531 1530 1529 1528 1527 1526 1526 1525 1525 1524 1524 1523 1523 1522 1521 1520 1520 1519 1519 1519 1518 1518 1517 1516 1516 1516 1516 1515 1515 1515 1515 1515 1515 1515 1515 1515 1515
1576 1576 1576 1575 1575 1574 1574 1574 1574 1573 1573 1572 1572 1571 1571 1570 1570 1569 1569 1568 1567 1566 1566 1565 1564 1564 1563 1563 1562 1561 1560 1559 1558 1557 1556 1555 1554 1553 1552 1551 1549 1549 1547 1546 1545 1544 1543 1542 1542 1541 1540 1539 1539 1538 1538 1538 1537 1537 1536 1536 1535 1535 1534 1533 1532 1531 1530 1529 1528 1527 1526 1525 1524 1524 1524 1523 1523 1522 1521 1520 1519 1519 1518 1518 1517 1517 1517 1516 1515 1515 1514 1514 1514 1514 1513 1513 1513 1512 1513 1513 1513 1513 1514
1576 1575 1575 1575 1574 1574 1574 1574 1573 1573 1573 1572 1572 1571 1570 1570 1569 1569 1568 1567 1567 1566 1565 1564 1564 1563 1562 1562 1561 1560 1559 1559 1557 1556 1555 1554 1553 1551 1550 1549 1548 1547 1546 1545 1544 1543 1542 1541 1540 1539 1539 1538 1537 1537 1537 1536 1536 1535 1535 1535 1534 1534 1533 1532 1531 1530 1529 1528 1527 1525 1524 1524 1523 1523 1522 1522 1521 1520 1519 1519 1518 1517 1516 1516 1515 1515 1515 1514 1514 1514 1513 1512 1512 1511 1511 1511 1511 1510 1510 1510 1510 1511 1511
1575 1575 1574 1574 1574 1574 1573 1573 1573 1573 1572 1572 1571 1571 1570 1569 1569 1568 1568 1567 1566 1565 1564 1564 1563 1562 1561 1561 1560 1559 1558 1557 1556 1555 1554 1552 1551 1550 1549 1548 1547 1546 1544 1544 1542 1541 1540 1539 1539 1538 1537 1537 1536 1535 1535 1534 1534 1534 1534 1533 1533 1532 1532 1531 1530 1529 1528 1527 1525 1524 1523 1523 1522 1521 1521 1520 1519 1519 1518 1517 1516 1516 1515 1514 1514 1514 1513 1513 1513 1512 1511 1510 1510 1509 1509 1509 1509 1509 1508 1508 1508 1508 1509
1574 1574 1574 1574 1574 1573 1573 1573 1572 1572 1572 1571 1571 1570 1569 1569 1568 1568 1567 1566 1565 1564 1564 1563 1562 1561 1560 1559 1559 1558 1556 1555 1554 1553 1552 1551 1550 1549 1548 1547 1546 1544 1543 1542 1541 1540 1539 1538 1538 1537 1536 1535 1534 1534 1533 1533 1532 1532 1532 1531 1530 1530 1529 1529 1528 1527 1526 1525 1524 1523 1522 1522 1521 1520 1519 1519 1518 1517 1516 1516 1515 1514 1514 1513 1512 1512 1511 1511 1510 1510 1509 1509 1508 1508 1507 1507 1507 1506 1506 1506 1506 1505 1506
1574 1574 1573 1573 1573 1573 1572 1572 1572 1571 1571 1571 1570 1569 1569 1568 1568 1567 1566 1565 1564 1564 1563 1562 1561 1560 1559 1558 1557 1555 1554 1553 1552 1551 1550 1549 1549 1548 1547 1546 1544 1544 1542 1541 1540 1539 1538 1537 1537 1536 1535 1534 1534 1533 1532 1531 1531 1530 1530 1529 1529 1528 1527 1527 1526 1525 1525 1524 1523 1522 1521 1521 1520 1519 1518 1518 1517 1516 1515 1514 1514 1513 1512 1511 1511 1510 1509 1509 1508 1508 1508 1507 1507 1506 1505 1505 1504 1504 1504 1503 1503 1503 1503
1574 1573 1573 1573 1572 1572 1572 1571 1571 1571 1570 1570 1569 1569 1568 1567 1567 1566 1565 1564 1564 1563 1562 1561 1560 1559 1557 1556 1555 1554 1552 1551 1550 1549 1549 1548 1547 1546 1545 1544 1543 1542 1541 1540 1539 1539 1538 1537 1536 1535 1534 1533 1533 1532 1531 1530 1529 1529 1528 1528 1527 1526 1525 1525 1524 1524 1523 1523 1522 1521 1520 1519 1519 1518 1517 1516 1515 1514 1514 1513 1512 1511 1511 1510 1509 1508 1508 1507 1506 1506 1505 1505 1504 1504 1504 1503 1503 1502 1501 1501 1500 1500 1500
1573 1573 1572 1572 1572 1572 1571 1571 1570 1570 1569 1569 1569 1568 1567 1567 1566 1565 1564 1563 1563 1561 1560 1559 1559 1557 1556 1554 1553 1552 1551 1550 1549 1548 1547 1546 1545 1544 1544 1543 1542 1541 1540 1539 1538 1537 1536 1536 1535 1534 1533 1532 1531 1530 1529 1529 1528 1528 1527 1526 1525 1524 1524 1523 1523 1523 1522 1522 1521 1520 1519 1519 1518 1517 1516 1515 1514 1513 1512 1511 1511 1510 1509 1508 1507 1507 1506 1505 1504 1504 1503 1503 1502 1502 1501 1500 1500 1499 1499 1498 1498 1498 1498
1572 1572 1572 1571 1571 1571 1570 1570 1569 1569 1569 1568 1568 1567 1566 1565 1565 1564 1563 1562 1561 1560 1559 1558 1557 1555 1554 1553 1551 1550 1549 1549 1548 1547 1546 1545 1544 1543 1542 1541 1540 1539 1539 1538 1537 1536 1535 1534 1534 1533 1532 1531 1530 1529 1528 1527 1527 1526 1525 1524 1524 1523 1522 1522 1522 1521 1521 1520 1520 1519 1518 1517 1516 1515 1514 1514 1513 1512 1511 1510 1509 1509 1508 1507 1506 1505 1504 1503 1503 1502 1501 1500 1499 1499 1499 1498 1497 1497 1496 1496 1496 1495 1495
1572 1571 1571 1571 1570 1570 1569 1569 1569 1568 1568 1567 1566 1565 1565 1564 1564 1563 1562 1561 1560 1559 1558 1556 1555 1554 1553 1551 1550 1549 1548 1547 1546 1545 1544 1544 1543 1542 1541 1540 1539 1538 1538 1537 1536 1535 1534 1533 1532 1531 1530 1529 1528 1527 1526 1526 1525 1524 1523 1523 1522 1521 1521 1520 1520 1520 1519 1519 1518 1518 1517 1516 1515 1514 1513 1512 1511 1510 1509 1509 1508 1507 1506 1505 1504 1503 1502 1501 1500 1499 1499 1498 1497 1496 1496 1495 1495 1494 1494 1494 1493 1493 1493
1571 1570 1570 1570 1569 1569 1569 1568 1567 1567 1566 1566 1565 1564 1564 1563 1562 1561 1560 1559 1558 1557 1556 1554 1553 1552 1551 1550 1549 1548 1547 1545 1544 1544 1543 1542 1541 1540 1539 1539 1538 1537 1536 1535 1534 1534 1532 1531 1530 1529 1529 1528 1527 1525 1525 1524 1523 1523 1522 1521 1520 1520 1519 1519 1519 1519 1518 1518 1517 1516 1515 1514 1514 1513 1512 1511 1510 1509 1508 1507 1506 1505 1504 1503 1502 1501 1500 1499 1499 1498 1497 1496 1495 1494 1494 1493 1493 1492 1492 1491 1491 1490 1490
1570 1569 1569 1569 1568 1568 1567 1567 1566 1565 1565 1564 1564 1563 1562 1561 1560 1559 1559 1558 1556 1555 1554 1553 1551 1550 1549 1548 1547 1546 1545 1544 1543 1542 1541 1540 1540 1539 1538 1537 1536 1536 1535 1534 1533 1532 1531 1530 1529 1528 1527 1526 1525 1524 1523 1522 1522 1521 1520 1519 1519 1519 1518 1518 1517 1517 1516 1516 1515 1514 1514 1513 1512 1512 1511 1509 1509 1508 1507 1505 1504 1504 1503 1501 1500 1499 1498 1497 1496 1495 1494 1494 1493 1492 1491 1490 1490 1489 1489 1489 1488 1488 1487
1569 1569 1568 1568 1567 1566 1566 1565 1565 1564 1563 1563 1562 1561 1560 1559 1559 1558 1557 1555 1554 1553 1552 1551 1550 1549 1548 1546 1545 1545 1544 1543 1542 1541 1540 1539 1539 1538 1537 1536 1535 1534 1534 1533 1532 1531 1530 1529 1527 1526 1525 1524 1523 1522 1521 1521 1520 1519 1519 1518 1518 1517 1517 1516 1516 1515 1515 1514 1514 1513 1513 1512 1511 1510 1509 1508 1507 1506 1505 1504 1503 1502 1501 1500 1499 1498 1497 1496 1494 1494 1493 1492 1491 1490 1489 1488 1488 1487 1487 1486 1486 1485 1485
1568 1567 1567 1566 1566 1565 1564 1564 1563 1563 1562 1561 1560 1559 1558 1557 1556 1555 1554 1553 1552 1551 1550 1549 1548 1547 1546 1545 1544 1543 1543 1542 1541 1540 1539 1538 1537 1536 1536 1535 1534 1533 1532 1531 1530 1529 1528 1527 1526 1525 1524 1523 1522 1521 1520 1519 1519 1518 1517 1517 1516 1515 1515 1514 1514 1514 1513 1513 1512 1512 1511 1510 1510 1509 1508 1507 1506 1505 1504 1502 1502 1501 1499 1498 1497 1496 1495 1494 1493 1491 1490 1489 1489 1488 1487 1486 1485 1484 1484 1484 1483 1483 1482
1566 1566 1565 1565 1564 1564 1563 1562 1562 1561 1560 1559 1558 1558 1557 1555 1554 1553 1552 1551 1550 1549 1548 1547 1546 1545 1544 1543 1543 1542 1541 1541 1540 1539 1538 1537 1536 1535 1534 1534 1533 1532 1531 1530 1529 1528 1527 1526 1525 1524 1523 1521 1520 1519 1519 1518 1517 1517 1516 1515 1515 1514 1514 1513 1513 1512 1511 1511 1511 1510 1509 1509 1509 1508 1506 1506 1505 1504 1502 1501 1500 1499 1498 1497 1495 1494 1493 1492 1491 1489 1489 1487 1486 1485 1484 1484 1483 1482 1481 1481 1480 1480 1479
1565 1564 1564 1564 1563 1562 1561 1561 1560 1559 1558 1557 1556 1555 1555 1554 1552 1551 1550 1549 1548 1547 1546 1545 1544 1544 1543 1542 1541 1540 1540 1539 1539 1538 1537 1536 1535 1534 1533 1532 1531 1530 1529 1529 1527 1526 1525 1524 1524 1523 1521 1520 1519 1518 1517 1517 1516 1515 1515 1514 1514 1513 1512 1512 1511 1510 1510 1509 1509 1509 1508 1508 1507 1506 1505 1504 1503 1502 1501 1500 1499 1497 1496 1495 1494 1492 1491 1490 1489 1488 1486 1485 1484 1483 1482 1481 1480 1479 1479 1478 1478 1477 1477
1564 1563 1563 1562 1561 1561 1560 1559 1558 1558 1557 1556 1554 1554 1553 1552 1551 1549 1549 1548 1547 1546 1545 1544 1543 1542 1541 1540 1539 1539 1538 1538 1537 1536 1536 1535 1534 1533 1532 1531 1530 1529 1528 1527 1526 1525 1524 1523 1522 1521 1520 1519 1518 1517 1516 1515 1515 1514 1514 1513 1512 1512 1511 1510 1510 1509 1509 1508 1508 1507 1507 1506 1505 1504 1504 1503 1502 1501 1499 1498 1497 1496 1495 1493 1492 1491 1489 1488 1487 1486 1484 1483 1482 1481 1480 1479 1478 1477 1476 1476 1475 1475 1474
1562 1562 1561 1560 1560 1559 1558 1558 1557 1556 1555 1554 1553 1552 1551 1550 1549 1548 1547 1546 1545 1544 1543 1542 1541 1540 1539 1539 1538 1537 1536 1536 1535 1535 1534 1533 1532 1531 1530 1529 1528 1527 1526 1525 1524 1524 1523 1522 1521 1520 1519 1518 1517 1516 1515 1514 1514 1513 1512 1512 1511 1510 1509 1509 1509 1508 1507 1507 1506 1506 1505 1504 1504 1503 1502 1501 1500 1499 1498 1497 1496 1494 1493 1492 1490 1489 1488 1486 1485 1484 1482 1481 1480 1479 1478 1476 1475 1474 1474 1474 1473 1472 1472
1561 1560 1560 1559 1559 1558 1557 1556 1555 1554 1554 1553 1551 1550 1549 1548 1547 1546 1545 1544 1544 1543 1542 1541 1540 1539 1538 1537 1536 1536 1535 1534 1534 1533 1533 1532 1531 1530 1529 1528 1527 1526 1525 1524 1523 1522 1521 1520 1519 1519 1518 1517 1515 1514 1514 1513 1512 1512 1511 1511 1510 1509 1509 1508 1507 1506 1506 1505 1505 1504 1504 1503 1502 1501 1500 1499 1498 1497 1496 1495 1494 1493 1491 1490 1489 1487 1486 1485 1484 1482 1480 1479 1478 1477 1475 1474 1473 1472 1471 1470 1470 1469 1468
1560 1559 1559 1558 1557 1556 1555 1554 1554 1553 1552 1551 1550 1549 1548 1547 1546 1545 1544 1543 1542 1541 1540 1539 1539 1538 1537 1536 1535 1534 1533 1533 1532 1531 1531 1530 1529 1528 1527 1526 1525 1524 1523 1522 1521 1520 1520 1519 1518 1517 1516 1515 1514 1513 1512 1511 1511 1510 1510 1509 1509 1508 1507 1507 1506 1505 1505 1504 1503 1503 1502 1501 1500 1499 1499 1498 1497 1496 1495 1494 1492 1491 1490 1489 1487 1485 1484 1483 1481 1480 1478 1477 1476 1474 1473 1472 1471 1469 1468 1467 1466 1465 1464
1559 1558 1557 1556 1556 1555 1554 1553 1552 1551 1550 1549 1549 1547 1546 1545 1544 1543 1542 1541 1541 1540 1539 1538 1537 1536 1535 1534 1534 1533 1532 1531 1530 1529 1529 1528 1527 1526 1525 1524 1524 1523 1522 1521 1520 1519 1518 1517 1516 1516 1515 1514 1513 1512 1511 1510 1509 1509 1508 1508 1507 1506 1506 1505 1505 1504 1503 1503 1502 1501 1500 1499 1499 1498 1497 1496 1495 1494 1493 1492 1491 1489 1488 1487 1485 1484 1482 1480 1479 1478 1476 1474 1473 1472 1471 1469 1468 1467 1466 1465 1464 1464 1463
1557 1556 1556 1555 1554 1554 1553 1552 1551 1550 1549 1548 1547 1546 1545 1544 1543 1542 1541 1540 1539 1538 1537 1536 1536 1535 1534 1533 1532 1531 1531 1530 1529 1528 1527 1526 1525 1524 1524 1523 1522 1521 1520 1519 1519 1518 1517 1516 1515 1514 1514 1513 1512 1511 1510 1509 1508 1507 1507 1506 1505 1505 1504 1504 1503 1503 1502 1501 1500 1500 1499 1498 1497 1496 1495 1494 1493 1492 1491 1490 1489 1488 1487 1485 1484 1482 1480 1479 1477 1476 1474 1472 1471 1469 1468 1467 1466 1464 1464 1463 1462 1461 1460
1556 1555 1554 1554 1553 1552 1551 1550 1549 1548 1547 1546 1545 1544 1544 1543 1542 1541 1540 1539 1538 1537 1536 1535 1534 1534 1533 1532 1531 1530 1529 1528 1527 1526 1526 1524 1524 1523 1522 1521 1520 1519 1519 1518 1517 1516 1515 1514 1514 1513 1512 1511 1510 1509 1509 1508 1507 1506 1505 1504 1504 1504 1503 1503 1502 1501 1500 1500 1499 1498 1498 1497 1496 1494 1494 1493 1491 1490 1489 1488 1487 1486 1485 1484 1482 1480 1479 1477 1475 1474 1472 1470 1469 1467 1466 1464 1463 1462 1461 1459 1458 1457 1456
1554 1554 1553 1552 1551 1551 1550 1549 1548 1547 1546 1545 1544 1543 1542 1541 1540 1539 1539 1538 1537 1536 1535 1534 1533 1532 1531 1530 1529 1529 1528 1527 1526 1525 1524 1523 1522 1521 1520 1519 1519 1518 1517 1516 1515 1514 1514 1513 1512 1511 1510 1509 1509 1508 1507 1507 1506 1505 1504 1503 1502 1502 1501 1501 1500 1499 1499 1498 1498 1497 1496 1495 1494 1493 1492 1491 1490 1489 1487 1486 1485 1484 1483 1481 1480 1479 1477 1475 1473 1471 1470 1468 1467 1465 1464 1462 1461 1459 1458 1457 1455 1454 1453
1553 1552 1552 1551 1550 1549 1548 1547 1546 1546 1544 1544 1543 1542 1541 1540 1539 1538 1537 1536 1536 1535 1534 1533 1532 1531 1530 1529 1528 1527 1526 1525 1524 1523 1522 1521 1521 1520 1519 1518 1517 1516 1515 1515 1514 1513 1512 1511 1511 1510 1509 1508 1507 1506 1506 1505 1504 1504 1503 1502 1501 1500 1500 1499 1498 1498 1497 1497 1496 1495 1494 1494 1493 1492 1490 1489 1488 1487 1485 1484 1483 1482 1481 1479 1478 1476 1475 1473 1471 1469 1468 1466 1464 1463 1461 1460 1459 1457 1456 1455 1454 1453 1452
1552 1551 1550 1549 1549 1548 1547 1546 1545 1544 1543 1542 1541 1540 1539 1539 1538 1537 1536 1535 1534 1534 1533 1532 1531 1530 1529 1528 1527 1526 1525 1524 1523 1522 1521 1520 1519 1519 1518 1517 1516 1515 1514 1513 1513 1512 1511 1510 1509 1508 1507 1507 1506 1505 1504 1504 1503 1502 1501 1500 1500 1499 1498 1498 1497 1496 1495 1495 1494 1494 1493 1492 1491 1490 1489 1487 1486 1485 1484 1483 1481 1480 1479 1477 1476 1474 1472 1471 1469 1467 1465 1464 1462 1460 1459 1458 1456 1455 1454 1453 1452 1451 1450
1550 1549 1549 1548 1547 1546 1545 1544 1544 1543 1542 1541 1540 1539 1538 1537 1536 1535 1535 1534 1533 1532 1531 1530 1529 1529 1528 1527 1526 1525 1524 1523 1522 1521 1520 1519 1518 1517 1516 1515 1514 1514 1513 1512 1511 1510 1509 1509 1508 1507 1506 1505 1504 1504 1503 1502 1501 1501 1500 1499 1499 1498 1497 1497 1496 1495 1494 1493 1493 1492 1492 1491 1490 1489 1487 1486 1484 1483 1482 1481 1479 1478 1476 1475 1473 1471 1469 1468 1466 1465 1463 1461 1460 1459 1457 1456 1454 1453 1451 1450 1449 1448 1446
1549 1548 1547 1547 1546 1545 1544 1543 1542 1541 1540 1539 1538 1537 1537 1536 1535 1534 1533 1533 1532 1531 1530 1529 1528 1527 1526 1526 1524 1523 1522 1521 1520 1519 1518 1517 1516 1516 1515 1514 1513 1512 1511 1510 1509 1509 1508 1507 1506 1505 1504 1504 1503 1502 1501 1500 1500 1499 1499 1498 1498 1497 1496 1495 1494 1494 1493 1492 1491 1490 1490 1489 1488 1487 1486 1484 1483 1482 1480 1479 1477 1476 1474 1472 1470 1469 1467 1465 1464 1463 1461 1459 1458 1456 1455 1454 1452 1451 1449 1448 1446 1445 1443
1547 1546 1546 1545 1544 1544 1543 1542 1541 1540 1539 1538 1537 1536 1535 1534 1534 1533 1532 1531 1530 1529 1529 1528 1527 1526 1525 1524 1523 1522 1521 1520 1519 1518 1517 1516 1515 1514 1513 1513 1512 1511 1510 1509 1508 1507 1506 1505 1504 1504 1503 1502 1501 1500 1500 1499 1499 1498 1498 1497 1496 1496 1495 1494 1494 1493 1492 1491 1489 1489 1488 1487 1486 1485 1484 1483 1481 1480 1479 1477 1475 1474 1472 1470 1468 1466 1464 1463 1462 1461 1459 1457 1456 1454 1453 1451 1449 1448 1446 1444 1443 1442 1441
1545 1545 1544 1544 1543 1542 1541 1540 1539 1539 1538 1537 1536 1535 1534 1533 1532 1532 1531 1530 1529 1529 1528 1527 1525 1524 1524 1523 1522 1521 1519 1519 1518 1516 1515 1514 1514 1513 1512 1511 1510 1509 1509 1507 1506 1505 1504 1504 1503 1502 1501 1500 1499 1499 1498 1498 1497 1497 1496 1496 1495 1494 1494 1493 1493 1492 1491 1489 1488 1487 1486 1485 1484 1483 1482 1481 1479 1478 1477 1475 1473 1471 1469 1467 1465 1464 1462 1461 1460 1459 1457 1455 1454 1452 1450 1449 1447 1445 1443 1441 1440 1439 1438
1544 1543 1543 1542 1541 1540 1540 1539 1538 1537 1536 1535 1534 1534 1533 1532 1531 1530 1529 1529 1528 1527 1527 1526 1524 1523 1522 1521 1520 1519 1518 1517 1516 1515 1514 1513 1512 1511 1510 1510 1509 1508 1507 1506 1504 1504 1503 1502 1501 1500 1499 1499 1498 1497 1497 1497 1496 1495 1495 1494 1494 1493 1492 1492 1491 1490 1489 1488 1487 1485 1484 1483 1482 1481 1480 1479 1477 1476 1474 1473 1471 1469 1467 1465 1463 1462 1460 1459 1458 1456 1455 1454 1452 1450 1448 1446 1445 1443 1441 1440 1439 1437 1434
1542 1542 1541 1540 1540 1539 1538 1537 1537 1536 1535 1534 1533 1533 1532 1531 1530 1529 1528 1528 1527 1526 1525 1525 1524 1523 1521 1520 1519 1518 1517 1515 1514 1513 1512 1511 1510 1510 1509 1508 1507 1506 1505 1504 1503 1502 1501 1500 1499 1499 1498 1497 1497 1496 1495 1495 1495 1494 1494 1493 1492 1492 1491 1490 1489 1489 1487 1486 1485 1484 1482 1481 1480 1479 1477 1476 1475 1473 1472 1470 1469 1467 1465 1463 1461 1460 1458 1457 1455 1454 1453 1451 1449 1448 1446 1444 1443 1441 1439 1438 1436 1434 1431
1541 1540 1539 1539 1538 1538 1537 1536 1535 1534 1534 1533 1532 1531 1530 1530 1529 1528 1527 1526 1525 1525 1524 1523 1523 1522 1520 1519 1518 1517 1516 1514 1513 1512 1511 1510 1509 1508 1507 1506 1505 1504 1503 1503 1502 1501 1500 1499 1498 1497 1496 1495 1495 1494 1494 1494 1493 1493 1492 1492 1491 1490 1489 1488 1488 1487 1485 1484 1483 1482 1480 1479 1478 1476 1474 1473 1472 1470 1469 1467 1466 1464 1463 1461 1459 1458 1456 1455 1453 1451 1450 1448 1447 1445 1444 1442 1440 1439 1437 1435 1433 1431 1429
1539 1539 1538 1537 1537 1536 1535 1534 1534 1533 1532 1531 1531 1530 1529 1529 1528 1527 1526 1525 1524 1523 1523 1522 1521 1520 1519 1518 1517 1516 1514 1513 1512 1511 1509 1509 1507 1506 1505 1504 1504 1503 1502 1501 1500 1499 1498 1497 1496 1495 1494 1493 1493 1492 1492 1492 1491 1491 1491 1490 1489 1488 1487 1486 1486 1485 1484 1482 1481 1480 1479 1477 1475 1474 1472 1470 1469 1467 1466 1465 1463 1462 1460 1459 1457 1456 1454 1452 1451 1449 1447 1445 1444 1443 1441 1440 1438 1436 1435 1432 1430 1428 1426
1538 1537 1537 1536 1535 1534 1534 1533 1532 1532 1531 1530 1529 1529 1528 1527 1526 1526 1525 1524 1523 1522 1521 1520 1520 1519 1518 1517 1516 1515 1514 1512 1511 1509 1508 1507 1506 1505 1504 1502 1502 1501 1501 1500 1498 1497 1496 1495 1494 1493 1493 1492 1491 1491 1490 1490 1489 1489 1489 1488 1487 1486 1485 1484 1484 1483 1482 1480 1479 1478 1477 1475 1474 1472 1470 1469 1467 1465 1464 1462 1461 1459 1458 1457 1455 1454 1452 1450 1448 1446 1444 1443 1441 1440 1439 1437 1436 1434 1433 1430 1427 1425 1424
1536 1536 1535 1534 1534 1533 1532 1532 1531 1530 1529 1529 1528 1527 1527 1526 1525 1524 1524 1523 1522 1521 1520 1519 1519 1518 1517 1516 1515 1514 1513 1511 1510 1509 1507 1505 1504 1503 1503 1502 1500 1499 1499 1498 1497 1495 1495 1494 1493 1492 1491 1491 1490 1489 1489 1488 1488 1487 1487 1486 1485 1484 1484 1482 1481 1480 1479 1478 1477 1476 1474 1473 1472 1470 1469 1467 1465 1463 1462 1460 1459 1457 1456 1454 1453 1451 1449 1448 1445 1444 1442 1440 1438 1437 1436 1435 1434 1432 1431 1429 1425 1422 1421
1534 1534 1534 1533 1532 1532 1531 1530 1529 1529 1528 1527 1527 1526 1525 1525 1524 1523 1522 1522 1521 1520 1519 1518 1518 1516 1515 1514 1514 1513 1511 1510 1509 1508 1506 1504 1502 1499 1499 1499 1498 1497 1496 1496 1495 1494 1493 1493 1492 1491 1490 1489 1489 1488 1488 1487 1486 1485 1484 1484 1483 1482 1481 1480 1479 1478 1477 1476 1475 1474 1472 1471 1469 1468 1466 1465 1463 1462 1460 1459 1457 1455 1453 1452 1450 1449 1447 1445 1443 1441 1439 1437 1436 1434 1434 1432 1431 1430 1429 1426 1424 1422 1420
1533 1532 1532 1531 1531 1530 1529 1529 1528 1527 1526 1526 1525 1524 1524 1524 1523 1522 1521 1520 1519 1518 1517 1516 1516 1515 1514 1513 1512 1511 1510 1509 1508 1507 1504 1504 1502 1499 1495 1495 1495 1495 1494 1494 1493 1493 1491 1491 1490 1489 1489 1488 1488 1487 1486 1486 1485 1484 1482 1481 1480 1479 1478 1478 1477 1476 1474 1473 1472 1471 1470 1469 1467 1466 1464 1463 1461 1460 1458 1457 1455 1453 1451 1449 1448 1446 1444 1442 1440 1438 1436 1435 1433 1432 1431 1430 1429 1428 1426 1423 1422 1420 1418
1531 1531 1530 1530 1529 1529 1528 1527 1526 1525 1525 1524 1524 1523 1523 1522 1521 1521 1520 1519 1518 1517 1516 1515 1514 1514 1513 1512 1511 1510 1509 1508 1507 1506 1504 1502 1501 1501 1498 1494 1492 1492 1492 1492 1491 1491 1490 1489 1489 1489 1488 1487 1486 1486 1484 1484 1483 1481 1480 1479 1478 1477 1476 1475 1474 1473 1472 1471 1470 1469 1468 1466 1465 1464 1462 1461 1459 1458 1456 1454 1453 1451 1449 1448 1446 1444 1441 1439 1437 1436 1434 1433 1431 1430 1429 1428 1427 1425 1422 1419 1418 1417 1416
1530 1529 1529 1528 1528 1527 1526 1525 1524 1524 1524 1523 1522 1521 1521 1521 1520 1519 1519 1518 1517 1516 1515 1514 1513 1512 1511 1511 1510 1509 1508 1508 1506 1505 1504 1502 1500 1500 1499 1497 1493 1490 1489 1487 1486 1488 1489 1489 1488 1488 1487 1486 1484 1483 1482 1481 1480 1479 1478 1477 1476 1475 1474 1473 1472 1471 1470 1469 1467 1466 1465 1464 1463 1461 1460 1459 1457 1456 1454 1452 1451 1449 1447 1445 1444 1442 1439 1437 1435 1434 1433 1431 1429 1428 1427 1426 1425 1423 1420 1418 1415 1413 1412
1528 1528 1527 1527 1526 1525 1524 1524 1523 1522 1522 1521 1521 1520 1519 1519 1519 1518 1517 1517 1516 1515 1514 1513 1512 1511 1510 1509 1509 1507 1507 1506 1505 1504 1504 1502 1500 1498 1498 1498 1496 1494 1490 1488 1484 1482 1486 1488 1487 1485 1484 1484 1482 1481 1480 1479 1477 1476 1476 1475 1474 1473 1472 1471 1470 1469 1468 1466 1465 1464 1463 1461 1460 1459 1458 1456 1455 1453 1452 1450 1449 1447 1445 1443 1441 1439 1437 1435 1434 1432 1431 1429 1428 1426 1425 1424 1422 1421 1419 1417 1414 1411 1409
1526 1526 1525 1525 1524 1524 1523 1522 1521 1521 1520 1520 1519 1519 1518 1518 1517 1517 1516 1515 1514 1514 1513 1512 1511 1510 1509 1508 1507 1506 1505 1505 1504 1504 1502 1502 1501 1499 1497 1497 1497 1496 1494 1494 1490 1484 1482 1483 1483 1482 1480 1480 1480 1479 1478 1477 1476 1474 1474 1473 1472 1471 1470 1469 1468 1467 1466 1464 1463 1462 1460 1459 1458 1457 1455 1454 1452 1451 1449 1448 1446 1444 1443 1441 1439 1438 1435 1433 1432 1430 1429 1428 1426 1424 1423 1421 1420 1419 1417 1416 1414 1411 1408
1525 1524 1524 1523 1522 1522 1521 1520 1519 1519 1519 1518 1518 1517 1517 1516 1516 1515 1515 1514 1514 1513 1512 1511 1510 1509 1508 1507 1506 1505 1504 1504 1504 1503 1502 1501 1501 1501 1499 1496 1494 1493 1493 1493 1493 1491 1485 1482 1479 1478 1477 1478 1477 1476 1476 1475 1474 1473 1472 1471 1470 1469 1468 1467 1466 1465 1464 1463 1461 1460 1459 1457 1455 1454 1453 1451 1450 1448 1447 1445 1444 1442 1441 1439 1438 1436 1434 1432 1430 1428 1427 1425 1424 1422 1420 1419 1418 1416 1414 1413 1411 1409 1406
1523 1522 1522 1521 1521 1520 1519 1519 1518 1517 1517 1516 1516 1516 1515 1515 1514 1514 1514 1513 1512 1511 1511 1510 1509 1508 1507 1506 1505 1504 1503 1502 1502 1502 1502 1500 1499 1499 1499 1498 1497 1495 1492 1491 1489 1489 1488 1486 1481 1475 1473 1475 1476 1474 1472 1473 1472 1471 1470 1469 1468 1467 1466 1465 1464 1463 1461 1460 1459 1458 1456 1455 1453 1452 1450 1449 1447 1446 1444 1443 1441 1440 1439 1437 1435 1434 1431 1429 1427 1426 1424 1423 1421 1420 1418 1417 1416 1414 1412 1410 1408 1406 1404
1521 1521 1520 1519 1519 1518 1518 1517 1516 1516 1515 1515 1514 1514 1514 1513 1513 1512 1512 1511 1510 1510 1509 1509 1507 1506 1506 1505 1504 1503 1502 1501 1500 1500 1501 1500 1499 1498 1497 1497 1498 1498 1497 1494 1490 1487 1485 1486 1485 1481 1473 1472 1474 1474 1471 1469 1469 1469 1468 1467 1466 1465 1464 1463 1462 1461 1459 1458 1457 1455 1454 1453 1451 1449 1448 1446 1445 1443 1442 1440 1439 1438 1436 1435 1433 1431 1429 1427 1425 1424 1422 1421 1419 1418 1417 1415 1415 1413 1411 1408 1406 1404 1402
1519 1519 1518 1518 1517 1516 1516 1515 1515 1514 1514 1513 1513 1512 1512 1512 1511 1511 1510 1509 1509 1508 1508 1507 1506 1505 1504 1504 1503 1502 1501 1500 1499 1499 1498 1498 1498 1497 1496 1495 1495 1494 1494 1493 1491 1489 1486 1484 1484 1483 1477 1470 1468 1470 1471 1469 1466 1465 1465 1465 1464 1463 1462 1460 1459 1458 1457 1456 1454 1453 1451 1450 1449 1447 1446 1444 1443 1441 1439 1438 1437 1435 1434 1432 1430 1428 1426 1424 1423 1422 1421 1419 1418 1417 1416 1414 1413 1411 1409 1407 1405 1403 1401
1517 1517 1516 1516 1515 1514 1514 1514 1513 1513 1512 1512 1511 1511 1510 1510 1509 1509 1509 1508 1508 1507 1506 1505 1505 1504 1503 1502 1501 1500 1499 1498 1498 1497 1496 1495 1495 1496 1495 1494 1493 1493 1492 1491 1490 1489 1489 1487 1484 1482 1480 1474 1467 1463 1465 1467 1466 1464 1463 1462 1461 1461 1460 1458 1457 1456 1454 1453 1452 1451 1449 1448 1446 1445 1444 1442 1440 1439 1437 1436 1434 1433 1431 1429 1427 1425 1424 1422 1421 1420 1419 1418 1417 1415 1414 1412 1411 1409 1407 1405 1404 1402 1400
1515 1515 1514 1514 1513 1513 1512 1512 1511 1511 1510 1510 1509 1509 1509 1508 1508 1507 1507 1506 1506 1505 1505 1504 1503 1503 1502 1501 1500 1499 1498 1497 1496 1496 1495 1494 1493 1493 1494 1493 1492 1491 1491 1490 1489 1489 1488 1487 1486 1484 1482 1479 1474 1466 1461 1461 1463 1463 1462 1460 1459 1458 1457 1456 1455 1454 1452 1451 1450 1449 1447 1445 1444 1443 1442 1440 1438 1437 1435 1433 1431 1430 1428 1427 1425 1423 1421 1419 1418 1417 1416 1415 1414 1413 1411 1410 1409 1408 1406 1404 1402 1400 1398
1513 1513 1512 1512 1511 1511 1510 1510 1509 1509 1509 1508 1508 1507 1507 1506 1506 1506 1505 1504 1504 1504 1503 1502 1502 1501 1500 1500 1499 1498 1497 1496 1495 1494 1494 1493 1492 1491 1492 1492 1491 1490 1489 1489 1488 1487 1486 1485 1484 1484 1483 1481 1478 1473 1466 1460 1459 1459 1459 1459 1458 1457 1455 1454 1453 1452 1450 1449 1448 1446 1445 1444 1442 1440 1439 1438 1436 1434 1432 1430 1429 1427 1426 1424 1422 1420 1419 1417 1415 1414 1413 1412 1412 1411 1409 1409 1407 1406 1404 1403 1400 1398 1395